[[{"header":{"parameterUnit":"m.s-1","parameterCategory":1,"la1":30.2991,"la2":30.254,"lo1":-89.0895,"lo2":-89.0444,"dy":0.0017,"dx":0.0017,"nx":28,"ny":28,"refTime":"2025-04-07T09:00:00:Z","depth":0,"parameterNumber":2,"parameterNumberName":"U-component_of_WINDS"},"data":[0,0,0,0,0,0,0,0,0,0,0,0,0,0,0,0,0,0,0,0,0,0,0,0,0,0,0,0,0,0,0,0,0,0,0,0,0,0,0,0,0,0,0,0,0,0,0,0,0,0,0,0,0,0,0,0,0,0,-0.0949,-0.095,0,-0.0975,-0.0975,-0.0976,-0.0954,-0.0953,-0.0952,-0.0952,-0.0982,-0.0983,-0.0985,0,0,0,0,0,0,0,0,0,0,0,0,0,-0.0885,-0.0886,-0.0949,-0.095,-0.095,-0.0975,-0.0976,-0.0976,-0.0954,-0.0953,-0.0952,-0.0951,-0.0981,-0.0983,-0.0985,0,0,0,0,0,0,0,0,0,0,0,0,0,-0.0912,-0.0886,-0.0949,-0.0942,-0.0942,-0.0975,-0.0976,-0.0976,-0.0955,-0.0953,-0.0952,-0.0951,-0.0981,-0.0983,-0.0985,-0.1028,0,0,-0.0993,-0.0994,0,0,0,0,0,0,0,0,-0.091,-0.0914,-0.0943,-0.0943,-0.0942,-0.096,-0.0964,-0.0994,-0.0955,-0.095,-0.0952,-0.095,-0.0976,-0.0979,-0.0987,-0.1029,-0.1031,-0.0993,-0.0995,-0.0996,-0.0996,0,0,0,0,0,0,0,-0.0909,-0.0913,-0.096,-0.0943,-0.0943,-0.0939,-0.0941,-0.0969,-0.097,-0.095,-0.0949,-0.0952,-0.0975,-0.0984,-0.0987,-0.1031,-0.0993,-0.0995,-0.0997,-0.0998,-0.1112,-0.1114,0,0,0,0,0,0,-0.0907,-0.0912,-0.0959,-0.096,-0.0923,-0.0941,-0.0944,-0.0956,-0.097,-0.0971,-0.0953,-0.0951,-0.0981,-0.0984,-0.0988,-0.1041,-0.0996,-0.0998,-0.0999,-0.1111,-0.1113,-0.1114,0,0,0,0,0,0,-0.0906,-0.0911,-0.0958,-0.0936,-0.0941,-0.0944,-0.0957,-0.0957,-0.0966,-0.0972,-0.0972,-0.0962,-0.098,-0.0985,-0.1018,-0.1042,-0.0999,-0.1001,-0.1109,-0.1111,-0.1113,-0.1146,0,0,0,0,0,0,-0.0904,-0.0911,-0.0926,-0.0936,-0.0942,-0.0987,-0.0959,-0.0959,-0.097,-0.0967,-0.098,-0.0981,-0.0979,-0.1015,-0.1021,-0.1044,-0.1003,-0.1107,-0.111,-0.1113,-0.1143,-0.1149,-0.1154,0,0,0,0,0,-0.0902,-0.0935,-0.0927,-0.0933,-0.0962,-0.0988,-0.0992,-0.0988,-0.0972,-0.0988,-0.0992,-0.0981,-0.1037,-0.1018,-0.1025,-0.105,-0.1105,-0.1109,-0.1112,-0.114,-0.1148,-0.1154,0,0,0,0,0,0,-0.0929,-0.0936,-0.0928,-0.0965,-0.0976,-0.0984,-0.1005,-0.0996,-0.1012,-0.1009,-0.1004,-0.1008,-0.1044,-0.1049,-0.1028,-0.1092,-0.1069,-0.1074,-0.1088,-0.1095,-0.1101,-0.11,-0.1005,0,0,0,0,0,-0.0939,-0.0959,-0.0964,-0.0996,-0.1002,-0.1003,-0.1014,-0.101,-0.1021,-0.1026,-0.1033,-0.1046,-0.1067,-0.1081,-0.11,-0.1142,-0.1146,-0.1162,-0.1168,-0.1173,-0.1178,-0.1203,-0.1211,-0.1126,-0.1126,-0.1126,0,0,-0.0961,-0.0967,-0.098,-0.1002,-0.101,-0.1032,-0.1007,-0.1031,-0.1048,-0.103,-0.1063,-0.1068,-0.1082,-0.1121,-0.1139,-0.1127,-0.1202,-0.1177,-0.1181,-0.1184,-0.1207,-0.1216,-0.1223,-0.1128,-0.1128,-0.1127,0,0,-0.1012,-0.1018,-0.1046,-0.1055,-0.1067,-0.1067,-0.1073,-0.1083,-0.1086,-0.1118,-0.1106,-0.1126,-0.1161,-0.1173,-0.1183,-0.1238,-0.123,-0.1244,-0.1276,-0.13,-0.1307,-0.1313,-0.1335,-0.1343,-0.1249,-0.1249,-0.1249,0,-0.1038,-0.107,-0.1062,-0.1088,-0.1099,-0.1082,-0.1112,-0.1121,-0.1139,-0.1148,-0.1134,-0.1179,-0.1187,-0.1229,-0.1243,-0.1251,-0.126,-0.1244,-0.1306,-0.1312,-0.1318,-0.1339,-0.1347,-0.1251,-0.1251,-0.1251,-0.1251,0,-0.1102,-0.1125,-0.1146,-0.1164,-0.1177,-0.1204,-0.1202,-0.1216,-0.121,-0.1212,-0.1246,-0.1255,-0.1277,-0.1286,-0.1281,-0.1328,-0.1321,-0.1306,-0.1284,-0.1328,-0.1348,-0.1356,-0.1254,-0.1253,-0.1253,-0.1252,0,0,-0.1174,-0.1186,-0.1195,-0.1203,-0.1215,-0.1233,-0.1259,-0.1279,-0.1293,-0.1306,-0.133,-0.136,-0.1347,-0.1359,-0.1355,-0.1376,-0.1422,-0.1359,-0.136,-0.1373,-0.1477,-0.149,-0.1499,-0.1415,-0.1416,-0.1417,-0.1477,0,-0.1228,-0.1274,-0.1268,-0.1313,-0.1335,-0.1319,-0.1343,-0.1354,-0.1356,-0.1375,-0.1378,-0.14,-0.138,-0.1388,-0.1407,-0.1412,-0.1443,-0.1407,-0.144,-0.1441,-0.144,-0.1509,-0.1523,-0.1579,-0.1484,-0.1486,-0.1486,0,-0.1297,-0.1312,-0.1359,-0.1369,-0.1378,-0.1399,-0.1418,-0.1436,-0.1448,-0.1448,-0.1461,-0.1453,-0.1482,-0.1456,-0.1497,-0.1473,-0.1485,-0.1489,-0.1491,-0.1497,-0.1469,-0.1519,-0.1596,-0.1606,-0.1498,-0.1497,-0.1496,0,-0.1348,-0.138,-0.1413,-0.142,-0.1431,-0.1447,-0.1452,-0.1463,-0.1476,-0.1492,-0.1501,-0.152,-0.1532,-0.1548,-0.1546,-0.1527,-0.1588,-0.1562,-0.1592,-0.1592,-0.1608,-0.1608,-0.1691,-0.1611,-0.1611,-0.1611,-0.161,0,-0.1411,-0.1441,-0.1436,-0.1456,-0.149,-0.1483,-0.1517,-0.152,-0.153,-0.1552,-0.1539,-0.156,-0.1555,-0.1577,-0.1575,-0.1611,-0.1615,-0.1618,-0.1618,-0.1621,-0.1621,-0.1632,-0.1629,-0.1613,-0.1612,-0.1612,-0.1611,0,-0.1475,-0.1472,-0.1507,-0.1514,-0.1517,-0.1542,-0.1549,-0.1569,-0.1569,-0.1598,-0.1604,-0.1605,-0.163,-0.1629,-0.1657,-0.1656,-0.1701,-0.1694,-0.1697,-0.1696,-0.1727,-0.1726,-0.1823,-0.1836,-0.1745,-0.1745,-0.1746,0,-0.1517,-0.154,-0.1549,-0.1562,-0.1569,-0.159,-0.1603,-0.1597,-0.1611,-0.1627,-0.1645,-0.1668,-0.1687,-0.1727,-0.1732,-0.1754,-0.175,-0.1782,-0.1753,-0.1756,-0.1754,-0.1754,-0.1758,-0.1789,-0.179,-0.1791,-0.1792,0,-0.1592,-0.159,-0.1608,-0.1626,-0.1642,-0.1656,-0.1669,-0.1681,-0.1676,-0.1693,-0.1717,-0.1731,-0.176,-0.1784,-0.1805,-0.1812,-0.1802,-0.18,-0.1809,-0.1814,-0.1816,-0.1818,-0.1715,-0.1799,-0.1798,-0.1798,-0.1797,-0.1797,-0.1648,-0.1669,-0.1679,-0.17,-0.1709,-0.1721,-0.1741,-0.1743,-0.1764,-0.1786,-0.178,-0.1809,-0.1821,-0.1848,-0.1857,-0.188,-0.1869,-0.188,-0.1884,-0.1888,-0.1893,-0.1809,-0.1883,-0.1883,-0.1883,-0.1883,-0.1883,0,-0.1726,-0.1731,-0.1751,-0.1769,-0.1786,-0.1773,-0.1787,-0.1803,-0.1827,-0.1839,-0.1857,-0.1886,-0.191,-0.1915,-0.1938,-0.1956,-0.1952,-0.1962,-0.1963,-0.1965,-0.19,-0.1892,-0.1965,-0.1965,-0.1965,-0.1965,-0.1965,-0.1965,-0.1768,-0.1803,-0.1801,-0.184,-0.1845,-0.1873,-0.1882,-0.1894,-0.1903,-0.1936,-0.1955,-0.1958,-0.1968,-0.1991,-0.2013,-0.2014,-0.2024,-0.2037,-0.2037,-0.1977,-0.1969,-0.1961,-0.1954,-0.2039,-0.2039,-0.21,-0.2101,-0.2101]},{"header":{"parameterUnit":"m.s-1","parameterCategory":1,"la1":30.2991,"la2":30.254,"lo1":-89.0895,"lo2":-89.0444,"dy":0.0017,"dx":0.0017,"nx":28,"ny":28,"refTime":"2025-04-07T09:00:00:Z","depth":0,"parameterNumber":3,"parameterNumberName":"V-component_of_WINDS"},"data":[0,0,0,0,0,0,0,0,0,0,0,0,0,0,0,0,0,0,0,0,0,0,0,0,0,0,0,0,0,0,0,0,0,0,0,0,0,0,0,0,0,0,0,0,0,0,0,0,0,0,0,0,0,0,0,0,0,0,-4.4431,-4.4432,0,-4.4516,-4.4517,-4.4518,-4.4483,-4.4481,-4.4479,-4.4477,-4.4562,-4.4566,-4.457,0,0,0,0,0,0,0,0,0,0,0,0,0,-4.4236,-4.424,-4.4431,-4.4432,-4.4433,-4.4516,-4.4517,-4.4518,-4.4484,-4.4481,-4.4479,-4.4476,-4.4561,-4.4566,-4.457,0,0,0,0,0,0,0,0,0,0,0,0,0,-4.4321,-4.4241,-4.443,-4.4426,-4.4426,-4.4516,-4.4517,-4.4518,-4.4484,-4.4481,-4.4478,-4.4475,-4.4559,-4.4565,-4.4571,-4.467,0,0,-4.459,-4.4593,0,0,0,0,0,0,0,0,-4.4316,-4.4328,-4.4425,-4.4426,-4.4427,-4.4486,-4.4479,-4.4569,-4.4485,-4.4462,-4.4477,-4.4474,-4.4539,-4.4547,-4.4569,-4.4674,-4.4677,-4.4591,-4.4594,-4.4597,-4.4599,0,0,0,0,0,0,0,-4.4311,-4.4324,-4.4464,-4.4427,-4.4428,-4.4419,-4.4427,-4.4496,-4.4516,-4.4464,-4.4461,-4.4472,-4.4539,-4.4563,-4.4571,-4.4679,-4.459,-4.4596,-4.46,-4.4602,-4.487,-4.4873,0,0,0,0,0,0,-4.4305,-4.432,-4.4462,-4.4467,-4.4363,-4.4425,-4.4434,-4.447,-4.4515,-4.4519,-4.4475,-4.447,-4.4554,-4.4564,-4.4574,-4.4694,-4.4597,-4.4603,-4.4606,-4.4867,-4.4871,-4.4875,0,0,0,0,0,0,-4.4301,-4.4318,-4.4458,-4.4393,-4.441,-4.4431,-4.4471,-4.4473,-4.4498,-4.4524,-4.4527,-4.4496,-4.4552,-4.4565,-4.4647,-4.4696,-4.4606,-4.4611,-4.4863,-4.4868,-4.4873,-4.4934,0,0,0,0,0,0,-4.4295,-4.4317,-4.4354,-4.4394,-4.4414,-4.453,-4.4474,-4.4477,-4.4509,-4.4504,-4.4545,-4.4549,-4.4551,-4.4638,-4.4653,-4.4703,-4.4616,-4.4858,-4.4865,-4.4871,-4.4928,-4.4941,-4.4952,0,0,0,0,0,-4.4288,-4.4367,-4.4357,-4.4374,-4.4462,-4.4533,-4.4545,-4.4546,-4.4513,-4.4551,-4.4568,-4.4547,-4.4688,-4.4646,-4.4663,-4.4716,-4.4855,-4.4863,-4.4871,-4.4922,-4.4938,-4.4951,0,0,0,0,0,0,-4.4332,-4.4372,-4.4361,-4.4455,-4.4491,-4.4527,-4.4576,-4.4562,-4.4608,-4.4602,-4.4601,-4.461,-4.4695,-4.4713,-4.4666,-4.4815,-4.4767,-4.4778,-4.48,-4.4815,-4.4827,-4.4821,-4.4621,0,0,0,0,0,-4.4352,-4.4408,-4.444,-4.452,-4.4539,-4.4554,-4.4585,-4.4584,-4.4621,-4.4636,-4.4659,-4.4695,-4.4747,-4.4782,-4.4832,-4.493,-4.4939,-4.4974,-4.4986,-4.4996,-4.5006,-4.5061,-4.5078,-4.49,-4.49,-4.49,0,0,-4.4395,-4.4424,-4.4459,-4.4529,-4.4557,-4.4615,-4.4567,-4.4629,-4.4672,-4.4645,-4.4725,-4.4743,-4.4783,-4.4874,-4.4915,-4.4892,-4.5057,-4.5006,-4.5013,-4.5018,-4.5071,-4.5088,-4.5103,-4.4905,-4.4904,-4.4903,0,0,-4.4503,-4.453,-4.4601,-4.463,-4.4674,-4.4684,-4.4701,-4.474,-4.4751,-4.4831,-4.4812,-4.4862,-4.4953,-4.4983,-4.501,-4.5131,-4.5114,-4.5147,-4.521,-4.5264,-4.5278,-4.5291,-4.5336,-4.5352,-4.5157,-4.5157,-4.5157,0,-4.4551,-4.4637,-4.4638,-4.4703,-4.4735,-4.4714,-4.4786,-4.4814,-4.4871,-4.4894,-4.4866,-4.4981,-4.5006,-4.5105,-4.5135,-4.5157,-4.5177,-4.5143,-4.5276,-4.5289,-4.53,-4.5343,-4.536,-4.5161,-4.5161,-4.516,-4.516,0,-4.4695,-4.4755,-4.4807,-4.4865,-4.4902,-4.497,-4.4981,-4.5019,-4.5014,-4.5027,-4.5109,-4.5139,-4.5196,-4.5219,-4.5214,-4.5317,-4.5302,-4.5276,-4.5227,-4.5321,-4.5362,-4.5378,-4.5167,-4.5165,-4.5164,-4.5163,0,0,-4.4832,-4.4891,-4.491,-4.4937,-4.4984,-4.503,-4.5097,-4.5154,-4.5187,-4.5227,-4.5284,-4.5361,-4.5338,-4.5369,-4.5367,-4.5414,-4.5511,-4.5383,-4.5383,-4.5407,-4.5629,-4.565,-4.5669,-4.55,-4.5503,-4.5505,-4.5626,0,-4.4945,-4.5065,-4.5068,-4.5177,-4.5234,-4.5215,-4.5274,-4.5309,-4.5323,-4.5373,-4.5387,-4.5444,-4.5407,-4.5426,-4.5472,-4.549,-4.5556,-4.5481,-4.5553,-4.5556,-4.5546,-4.569,-4.5712,-4.5825,-4.5642,-4.5645,-4.5646,0,-4.5093,-4.514,-4.5256,-4.5296,-4.532,-4.5373,-4.5426,-4.5474,-4.5513,-4.552,-4.5556,-4.5548,-4.5616,-4.5565,-4.5661,-4.561,-4.5639,-4.5652,-4.5657,-4.5665,-4.5608,-4.5703,-4.586,-4.5878,-4.5671,-4.5669,-4.5667,0,-4.5185,-4.5276,-4.5358,-4.5381,-4.543,-4.5468,-4.549,-4.5527,-4.5561,-4.5607,-4.5629,-4.5682,-4.5711,-4.5752,-4.5759,-4.572,-4.5855,-4.5804,-4.5863,-4.5863,-4.5894,-4.5892,-4.606,-4.591,-4.591,-4.5909,-4.5909,0,-4.5312,-4.5383,-4.54,-4.545,-4.553,-4.5533,-4.5612,-4.5631,-4.5664,-4.5718,-4.5704,-4.5754,-4.5759,-4.5811,-4.5816,-4.5895,-4.5908,-4.5916,-4.5917,-4.5918,-4.5918,-4.5939,-4.5932,-4.5914,-4.5913,-4.5912,-4.5911,0,-4.5428,-4.5441,-4.5529,-4.5569,-4.5581,-4.5639,-4.5672,-4.5721,-4.5733,-4.5802,-4.5818,-4.5838,-4.5899,-4.5909,-4.5979,-4.5983,-4.6079,-4.607,-4.6066,-4.6065,-4.6125,-4.612,-4.6314,-4.634,-4.6171,-4.6173,-4.6174,0,-4.5509,-4.5564,-4.561,-4.5646,-4.5671,-4.5728,-4.5763,-4.5768,-4.5806,-4.5856,-4.5899,-4.5958,-4.6006,-4.6104,-4.6125,-4.6179,-4.6173,-4.6237,-4.6181,-4.6182,-4.6177,-4.6174,-4.618,-4.6248,-4.625,-4.6252,-4.6253,0,-4.5652,-4.5656,-4.5709,-4.5765,-4.5808,-4.5851,-4.5893,-4.5922,-4.5933,-4.5976,-4.6038,-4.6076,-4.6149,-4.6209,-4.6263,-4.6285,-4.6272,-4.627,-4.6287,-4.629,-4.6287,-4.6292,-4.6097,-4.6266,-4.6265,-4.6264,-4.6263,-4.6263,-4.5754,-4.5803,-4.5844,-4.5904,-4.5936,-4.5975,-4.6023,-4.6043,-4.6096,-4.6157,-4.6156,-4.6225,-4.6264,-4.6337,-4.6362,-4.6416,-4.6396,-4.642,-4.6426,-4.6433,-4.644,-4.6277,-4.6426,-4.6426,-4.6425,-4.6425,-4.6425,0,-4.5898,-4.5924,-4.5979,-4.6038,-4.6085,-4.6069,-4.6114,-4.6154,-4.6216,-4.6254,-4.6302,-4.6375,-4.6433,-4.6459,-4.6516,-4.6555,-4.655,-4.657,-4.6568,-4.6574,-4.6454,-4.6434,-4.6573,-4.6573,-4.6573,-4.6573,-4.6573,-4.6573,-4.5979,-4.6062,-4.6072,-4.6171,-4.6195,-4.6265,-4.6292,-4.6329,-4.6359,-4.6442,-4.6491,-4.6508,-4.6541,-4.6601,-4.6654,-4.666,-4.6683,-4.6706,-4.6709,-4.6597,-4.6582,-4.6568,-4.655,-4.671,-4.671,-4.6825,-4.6826,-4.6827]}]]